Showing default

IRIDIUM 121, 42812

Orbit data source: Space-Track

IRIDIUM 121, 42812 is a payload satellite owned by Iridium (US) in LEO that was launched on Sun, 25 Jun 2017 UTC via an FALCON 9 launch vehicle from the Air Force Western Test Range (AFWTR). Payload-class satellites include a variety of spacecraft equipped with specific instruments for various scientific and technological missions. These include communications satellites like Starlink; space stations such as the ISS; scientific satellites like the Hubble; Earth observation satellites from companies like Planet Labs, Umbra, and HawkEye 360; GPS; miniature CubeSats for education and research; and military/defense satellites.

Loading next visibility...
Identifier
42812, 2017-039K
Orbit
LEO
Country
Flag of USUS
Related business
Manufacturer
OATK SSG Gilbert
Mission
Operational Commercial Communications
Bus & Motor
ELITEBUS, Unknown motor
Mass
860 kg wet, 700 kg dry
Launch date (UTC)
2017-06-25 (8 years ago)
Launch vehicle
FALCON 9
Launch site
Air Force Western Test Range (AFWTR)
Object type
Payload
Rocket body
Debris
Shape & HBR
Trap Box + 2 Pan, 4.8 m
Radar Cross Section
10.154 m², Large (>1 m²)

Expand to show TLE details & history
Last TLE update: 7 hours ago

TLE from 7 hours ago
0 IRIDIUM 121
1 42812U 17039K   25346.95549658  .00000121  00000-0  36276-4 0  9990
2 42812  86.3965  71.5221 0002190  96.0563 264.0882 14.34218564443138
Epoch: 2025-12-12T22:55Z
TLE epoch observation values (Epoch: 2025-12-12T22:55:54.904Z)
Latitude
-0.00006°
Longitude
5.65364°
Altitude
780.877 km
Speed
7.463 km/s
True Right ascension
04h 46m 05s
True Declination
0° 00' 00"
Sunlit
Object was in full shadow at epoch
Visualization orbit readout
Latitude
Unknown
Longitude
Unknown
Altitude
Unknown
Speed
Unknown
Apparent Right ascension
Unknown
Apparent Declination
Unknown
Sunlit
N/A
Visualization observer readout
Local Sidereal Time
04:48:37
Azimuth
Unknown
Elevation
Unknown
Doppler factor
Unknown
Orbital elements
Apogee altitude
776.195 km
Perigee altitude
773.062 km
Semi-major axis
7,152.766 km
Eccentricity
0.00022
Inclination
86.3965°
RAAN
71.5221°
Arg. of periapsis
96.0563°
True anomaly
264.06324°
Mean anomaly
264.0882°
Eccentric anomaly
264.07572°
Mean motion
3.58783 °/min
Orbital period
100.34 mins
BSTAR
0.000036276
Loading maneuver chart data...
Computing Atmospheric mass density...
Loading historical data...
Loading historical data...
Loading historical data...
Loading historical data...
Loading historical data...
Loading historical data...
Loading historical data...

Documentation

Showing up to 5 results
|